ARG1819 SAVE-SABE

Flight info

Callsign ARG1819
Flight time 1h 54m
Altitude 37000
Route OPROS DCT TOMIV UT657 BCA UW22 VALOS VALOS9R
Aircraft B738/M-MSDFGHILRVW/LB1

Departure

Time 2026-04-22 18:59
Airport Esquel Brigadier Antonio Parodi International Airport (SAVE)

Arrival

Time 2026-04-22 20:54
Airport Aeroparque Jorge Newbery (SABE)
Time Latitude Longitude Altitude Speed Heading
2026-04-22 18:23 -42.90630 -71.14636 2635 ft 0 kts 270°
2026-04-22 18:52 -42.90630 -71.14638 2635 ft 1 kts 256°
2026-04-22 18:52 -42.90638 -71.14643 2635 ft 1 kts 202°
2026-04-22 18:53 -42.90647 -71.14643 2635 ft 1 kts 177°
2026-04-22 18:53 -42.90656 -71.14638 2635 ft 2 kts 156°
2026-04-22 18:53 -42.90674 -71.14624 2635 ft 4 kts 149°
2026-04-22 18:53 -42.90705 -71.14598 2635 ft 6 kts 148°
2026-04-22 18:54 -42.90737 -71.14550 2636 ft 8 kts 112°
2026-04-22 18:54 -42.90740 -71.14463 2636 ft 11 kts 87°
2026-04-22 18:54 -42.90730 -71.14349 2635 ft 14 kts 74°
2026-04-22 18:54 -42.90695 -71.14216 2636 ft 16 kts 63°
2026-04-22 18:55 -42.90628 -71.14073 2634 ft 20 kts 57°
2026-04-22 18:55 -42.90549 -71.13907 2636 ft 22 kts 57°
2026-04-22 18:55 -42.90461 -71.13724 2637 ft 24 kts 57°
2026-04-22 18:55 -42.90368 -71.13528 2638 ft 25 kts 57°
2026-04-22 18:56 -42.90268 -71.13317 2638 ft 28 kts 57°
2026-04-22 18:56 -42.90157 -71.13085 2635 ft 31 kts 57°
2026-04-22 18:56 -42.90039 -71.12839 2634 ft 31 kts 57°
2026-04-22 18:56 -42.89939 -71.12626 2636 ft 23 kts 57°
2026-04-22 18:57 -42.89865 -71.12471 2637 ft 18 kts 57°
2026-04-22 18:57 -42.89805 -71.12391 2638 ft 10 kts 30°
2026-04-22 18:57 -42.89794 -71.12348 2637 ft 3 kts 124°
2026-04-22 18:57 -42.89812 -71.12355 2638 ft 3 kts 234°
2026-04-22 18:58 -42.89814 -71.12358 2638 ft 0 kts 236°
2026-04-22 18:58 -42.89814 -71.12359 2638 ft 1 kts 236°
2026-04-22 18:59 -42.89916 -71.12575 2636 ft 63 kts 237°
2026-04-22 18:59 -42.90276 -71.13334 2638 ft 125 kts 237°
2026-04-22 18:59 -42.90815 -71.14467 3004 ft 147 kts 238°
2026-04-22 18:59 -42.91396 -71.15658 3708 ft 156 kts 237°
2026-04-22 19:00 -42.92057 -71.16889 4467 ft 167 kts 239°
2026-04-22 19:00 -42.92756 -71.18215 5223 ft 174 kts 241°
2026-04-22 19:00 -42.93450 -71.19547 6092 ft 173 kts 240°
2026-04-22 19:00 -42.94226 -71.20898 6471 ft 196 kts 238°
2026-04-22 19:01 -42.94796 -71.22669 6797 ft 209 kts 268°
2026-04-22 19:01 -42.94465 -71.24584 7419 ft 219 kts 297°
2026-04-22 19:01 -42.93326 -71.26059 8024 ft 241 kts 321°
2026-04-22 19:01 -42.91840 -71.27257 8512 ft 251 kts 310°
2026-04-22 19:02 -42.90904 -71.29196 9294 ft 245 kts 282°
2026-04-22 19:02 -42.90845 -71.31473 10225 ft 242 kts 255°
2026-04-22 19:02 -42.91651 -71.33501 11003 ft 252 kts 230°
2026-04-22 19:02 -42.93170 -71.34824 11714 ft 272 kts 204°
2026-04-22 19:03 -42.95111 -71.35067 12510 ft 293 kts 179°
2026-04-22 19:03 -42.97077 -71.34093 13249 ft 315 kts 152°
2026-04-22 19:03 -42.98621 -71.31855 13935 ft 339 kts 120°
2026-04-22 19:03 -42.99129 -71.28639 14414 ft 360 kts 87°
2026-04-22 19:04 -42.98380 -71.25339 14826 ft 373 kts 55°
2026-04-22 19:04 -42.96572 -71.22802 15450 ft 373 kts 34°
2026-04-22 19:04 -42.94511 -71.20665 16327 ft 372 kts 36°
2026-04-22 19:04 -42.92655 -71.18158 17106 ft 379 kts 49°
2026-04-22 19:05 -42.91182 -71.15224 17895 ft 383 kts 56°
2026-04-22 19:05 -42.89721 -71.12106 18265 ft 397 kts 56°
2026-04-22 19:05 -42.88212 -71.08908 18762 ft 404 kts 56°
2026-04-22 19:05 -42.86687 -71.05665 19383 ft 408 kts 59°
2026-04-22 19:06 -42.85351 -71.02236 20026 ft 410 kts 62°
2026-04-22 19:06 -42.84023 -70.98764 20637 ft 414 kts 61°
2026-04-22 19:06 -42.82670 -70.95291 21223 ft 418 kts 60°
2026-04-22 19:07 -42.79862 -70.88270 22393 ft 425 kts 60°
2026-04-22 19:07 -42.78427 -70.84743 22955 ft 429 kts 60°
2026-04-22 19:07 -42.76969 -70.81175 23490 ft 433 kts 60°
2026-04-22 19:07 -42.75495 -70.77577 23951 ft 438 kts 60°
2026-04-22 19:08 -42.74005 -70.73942 24410 ft 441 kts 59°
2026-04-22 19:08 -42.72506 -70.70289 24890 ft 444 kts 59°
2026-04-22 19:08 -42.71000 -70.66620 25338 ft 447 kts 59°
2026-04-22 19:08 -42.69472 -70.62903 25760 ft 451 kts 59°
2026-04-22 19:09 -42.67955 -70.59217 26178 ft 454 kts 59°
2026-04-22 19:09 -42.66409 -70.55462 26586 ft 457 kts 59°
2026-04-22 19:09 -42.65359 -70.52917 26852 ft 459 kts 59°
2026-04-22 19:09 -42.63276 -70.47871 27283 ft 465 kts 59°
2026-04-22 19:10 -42.61693 -70.44022 27659 ft 468 kts 59°
2026-04-22 19:10 -42.60106 -70.40154 28053 ft 471 kts 59°
2026-04-22 19:10 -42.58510 -70.36263 28409 ft 474 kts 59°
2026-04-22 19:10 -42.56897 -70.32337 28757 ft 477 kts 59°
2026-04-22 19:11 -42.55272 -70.28384 29109 ft 480 kts 59°
2026-04-22 19:11 -42.53640 -70.24422 29469 ft 483 kts 59°
2026-04-22 19:11 -42.51996 -70.20438 29815 ft 485 kts 59°
2026-04-22 19:11 -42.50339 -70.16430 30075 ft 491 kts 59°
2026-04-22 19:12 -42.48656 -70.12365 30260 ft 496 kts 59°
2026-04-22 19:12 -42.47537 -70.09665 30445 ft 497 kts 59°
2026-04-22 19:12 -42.45844 -70.05583 30775 ft 498 kts 59°
2026-04-22 19:12 -42.44143 -70.01488 31050 ft 500 kts 59°
2026-04-22 19:13 -42.42429 -69.97369 31283 ft 503 kts 59°
2026-04-22 19:13 -42.40706 -69.93233 31526 ft 506 kts 59°
2026-04-22 19:13 -42.38976 -69.89087 31794 ft 507 kts 59°
2026-04-22 19:13 -42.37241 -69.84933 32091 ft 508 kts 59°
2026-04-22 19:14 -42.35503 -69.80779 32508 ft 506 kts 59°
2026-04-22 19:14 -42.33773 -69.76648 32944 ft 503 kts 59°
2026-04-22 19:14 -42.32045 -69.72529 33297 ft 503 kts 59°
2026-04-22 19:14 -42.30320 -69.68422 33592 ft 503 kts 59°
2026-04-22 19:15 -42.28586 -69.64302 33908 ft 504 kts 59°
2026-04-22 19:15 -42.26858 -69.60202 34209 ft 503 kts 59°
2026-04-22 19:15 -42.25129 -69.56105 34507 ft 502 kts 59°
2026-04-22 19:15 -42.23420 -69.52058 34747 ft 501 kts 59°
2026-04-22 19:16 -42.21715 -69.48029 35531 ft 486 kts 59°
2026-04-22 19:16 -42.20050 -69.44096 36033 ft 481 kts 59°
2026-04-22 19:16 -42.18385 -69.40170 36220 ft 483 kts 59°
2026-04-22 19:16 -42.16712 -69.36234 36357 ft 486 kts 59°
2026-04-22 19:17 -42.15027 -69.32274 36494 ft 488 kts 59°
2026-04-22 19:17 -42.13332 -69.28297 36682 ft 490 kts 59°
2026-04-22 19:17 -42.11638 -69.24324 36947 ft 489 kts 59°
2026-04-22 19:17 -42.09942 -69.20355 37064 ft 491 kts 59°
2026-04-22 19:18 -42.08232 -69.16356 37070 ft 492 kts 59°
2026-04-22 19:18 -42.04820 -69.08392 37050 ft 488 kts 59°
2026-04-22 19:19 -42.01446 -69.00540 37061 ft 484 kts 59°
2026-04-22 19:19 -41.98074 -68.92712 37062 ft 483 kts 59°
2026-04-22 19:20 -41.94701 -68.84904 37060 ft 483 kts 58°
2026-04-22 19:20 -41.91326 -68.77112 37052 ft 483 kts 58°
2026-04-22 19:21 -41.87935 -68.69301 37047 ft 484 kts 58°
2026-04-22 19:21 -41.84557 -68.61542 37049 ft 485 kts 58°
2026-04-22 19:22 -41.81146 -68.53727 37038 ft 486 kts 58°
2026-04-22 19:22 -41.77726 -68.45912 37041 ft 488 kts 58°
2026-04-22 19:23 -41.74277 -68.38053 37027 ft 489 kts 58°
2026-04-22 19:23 -41.70819 -68.30192 37031 ft 491 kts 57°
2026-04-22 19:24 -41.67342 -68.22307 37035 ft 492 kts 57°
2026-04-22 19:24 -41.63851 -68.14414 37029 ft 494 kts 58°
2026-04-22 19:25 -41.60361 -68.06540 37033 ft 495 kts 57°
2026-04-22 19:25 -41.56843 -67.98624 37030 ft 496 kts 57°
2026-04-22 19:26 -41.53313 -67.90699 37024 ft 496 kts 57°
2026-04-22 19:26 -41.49790 -67.82790 37026 ft 496 kts 57°
2026-04-22 19:27 -41.46271 -67.74870 37028 ft 496 kts 57°
2026-04-22 19:27 -41.42756 -67.66977 37022 ft 495 kts 57°
2026-04-22 19:28 -41.39235 -67.59093 37018 ft 494 kts 57°
2026-04-22 19:28 -41.35714 -67.51234 37012 ft 493 kts 57°
2026-04-22 19:29 -41.32196 -67.43400 37034 ft 493 kts 57°
2026-04-22 19:29 -41.28664 -67.35557 37021 ft 494 kts 57°
2026-04-22 19:30 -41.25718 -67.29030 37030 ft 495 kts 57°
2026-04-22 19:30 -41.21588 -67.19905 37027 ft 496 kts 57°
2026-04-22 19:31 -41.18553 -67.13214 37022 ft 497 kts 57°
2026-04-22 19:31 -41.14975 -67.05347 37017 ft 498 kts 57°
2026-04-22 19:32 -41.11390 -66.97484 37025 ft 498 kts 57°
2026-04-22 19:32 -41.07799 -66.89626 37025 ft 498 kts 57°
2026-04-22 19:33 -41.04198 -66.81764 37015 ft 499 kts 57°
2026-04-22 19:33 -41.00576 -66.73919 37013 ft 499 kts 56°
2026-04-22 19:34 -40.96925 -66.66112 37016 ft 499 kts 56°
2026-04-22 19:34 -40.93272 -66.58324 37021 ft 498 kts 56°
2026-04-22 19:35 -40.89612 -66.50525 37017 ft 499 kts 56°
2026-04-22 19:35 -40.85952 -66.42740 37022 ft 499 kts 56°
2026-04-22 19:36 -40.82303 -66.34998 37015 ft 499 kts 56°
2026-04-22 19:36 -40.78631 -66.27224 37015 ft 499 kts 56°
2026-04-22 19:37 -40.74951 -66.19457 37014 ft 499 kts 56°
2026-04-22 19:37 -40.71273 -66.11712 37017 ft 498 kts 56°
2026-04-22 19:38 -40.67590 -66.03974 37020 ft 498 kts 56°
2026-04-22 19:38 -40.63905 -65.96254 37010 ft 498 kts 55°
2026-04-22 19:39 -40.60213 -65.88539 37008 ft 498 kts 55°
2026-04-22 19:39 -40.56517 -65.80832 37022 ft 498 kts 55°
2026-04-22 19:40 -40.52814 -65.73132 37016 ft 498 kts 55°
2026-04-22 19:40 -40.49104 -65.65436 37015 ft 498 kts 55°
2026-04-22 19:41 -40.45386 -65.57741 37013 ft 499 kts 55°
2026-04-22 19:41 -40.41687 -65.50106 37022 ft 499 kts 55°
2026-04-22 19:42 -40.37957 -65.42426 37024 ft 500 kts 54°
2026-04-22 19:42 -40.34215 -65.34740 37024 ft 500 kts 54°
2026-04-22 19:43 -40.28590 -65.23220 37018 ft 500 kts 54°
2026-04-22 19:43 -40.24834 -65.15551 37020 ft 500 kts 54°
2026-04-22 19:44 -40.21074 -65.07895 37018 ft 500 kts 54°
2026-04-22 19:44 -40.17307 -65.00240 37021 ft 500 kts 54°
2026-04-22 19:45 -40.13539 -64.92603 37018 ft 499 kts 53°
2026-04-22 19:45 -40.09772 -64.84985 37030 ft 499 kts 53°
2026-04-22 19:46 -40.06033 -64.77440 37027 ft 499 kts 53°
2026-04-22 19:46 -40.02272 -64.69820 37028 ft 499 kts 54°
2026-04-22 19:47 -39.98536 -64.62191 37028 ft 499 kts 54°
2026-04-22 19:47 -39.94796 -64.54565 37032 ft 499 kts 54°
2026-04-22 19:48 -39.91046 -64.46949 37028 ft 499 kts 54°
2026-04-22 19:48 -39.87297 -64.39358 37027 ft 498 kts 53°
2026-04-22 19:49 -39.83542 -64.31774 37024 ft 498 kts 53°
2026-04-22 19:49 -39.79804 -64.24242 37032 ft 498 kts 53°
2026-04-22 19:50 -39.76035 -64.16667 37028 ft 499 kts 53°
2026-04-22 19:50 -39.72259 -64.09094 37030 ft 499 kts 53°
2026-04-22 19:51 -39.68474 -64.01521 37022 ft 500 kts 52°
2026-04-22 19:51 -39.64681 -63.93952 37030 ft 500 kts 52°
2026-04-22 19:52 -39.60881 -63.86386 37026 ft 500 kts 52°
2026-04-22 19:52 -39.57074 -63.78823 37031 ft 501 kts 52°
2026-04-22 19:53 -39.53261 -63.71267 37021 ft 501 kts 51°
2026-04-22 19:53 -39.49440 -63.63712 36999 ft 501 kts 51°
2026-04-22 19:54 -39.45620 -63.56177 37018 ft 501 kts 51°
2026-04-22 19:54 -39.41794 -63.48648 37020 ft 501 kts 51°
2026-04-22 19:55 -39.37958 -63.41114 37015 ft 501 kts 50°
2026-04-22 19:55 -39.34125 -63.33657 37023 ft 502 kts 50°
2026-04-22 19:56 -39.30228 -63.26157 37018 ft 502 kts 50°
2026-04-22 19:56 -39.26330 -63.18669 37022 ft 503 kts 50°
2026-04-22 19:57 -39.22422 -63.11165 37003 ft 503 kts 49°
2026-04-22 19:57 -39.18508 -63.03663 37017 ft 503 kts 49°
2026-04-22 19:58 -39.14598 -62.96187 37019 ft 503 kts 49°
2026-04-22 19:58 -39.10704 -62.88758 36990 ft 503 kts 49°
2026-04-22 20:00 -38.97650 -62.63983 37021 ft 501 kts 48°
2026-04-22 20:01 -38.93728 -62.56575 37025 ft 501 kts 48°
2026-04-22 20:01 -38.89805 -62.49182 37011 ft 500 kts 48°
2026-04-22 20:02 -38.85883 -62.41809 37032 ft 500 kts 48°
2026-04-22 20:02 -38.81956 -62.34443 37042 ft 500 kts 48°
2026-04-22 20:03 -38.78027 -62.27088 37049 ft 501 kts 48°
2026-04-22 20:03 -38.74081 -62.19723 37034 ft 500 kts 46°
2026-04-22 20:03 -38.71924 -62.16297 37017 ft 489 kts 37°
2026-04-22 20:04 -38.69467 -62.13360 37045 ft 476 kts 27°
2026-04-22 20:04 -38.64104 -62.08529 37030 ft 471 kts 24°
2026-04-22 20:05 -38.58737 -62.03772 37034 ft 473 kts 24°
2026-04-22 20:05 -38.53339 -61.98923 37033 ft 475 kts 25°
2026-04-22 20:06 -38.47930 -61.94035 37038 ft 476 kts 25°
2026-04-22 20:06 -38.42529 -61.89155 37029 ft 476 kts 24°
2026-04-22 20:07 -38.37119 -61.84280 37038 ft 476 kts 24°
2026-04-22 20:07 -38.31703 -61.79413 37040 ft 476 kts 24°
2026-04-22 20:08 -38.26286 -61.74553 37051 ft 476 kts 24°
2026-04-22 20:08 -38.20900 -61.69729 37048 ft 476 kts 24°
2026-04-22 20:09 -38.15484 -61.64886 37019 ft 475 kts 23°
2026-04-22 20:09 -38.10084 -61.60067 37042 ft 474 kts 23°
2026-04-22 20:10 -38.04686 -61.55260 37048 ft 474 kts 23°
2026-04-22 20:10 -37.99294 -61.50465 37050 ft 474 kts 23°
2026-04-22 20:11 -37.93894 -61.45676 37050 ft 473 kts 23°
2026-04-22 20:11 -37.88496 -61.40901 37036 ft 473 kts 22°
2026-04-22 20:12 -37.83102 -61.36138 37051 ft 472 kts 22°
2026-04-22 20:12 -37.77714 -61.31388 37044 ft 472 kts 22°
2026-04-22 20:13 -37.72325 -61.26644 37053 ft 472 kts 22°
2026-04-22 20:13 -37.66933 -61.21907 37057 ft 472 kts 22°
2026-04-22 20:14 -37.61534 -61.17172 37032 ft 472 kts 22°
2026-04-22 20:14 -37.56172 -61.12476 37049 ft 472 kts 22°
2026-04-22 20:15 -37.50773 -61.07758 37071 ft 473 kts 22°
2026-04-22 20:15 -37.45363 -61.03040 37039 ft 473 kts 22°
2026-04-22 20:16 -37.39953 -60.98327 37061 ft 473 kts 22°
2026-04-22 20:16 -37.34547 -60.93628 37067 ft 473 kts 22°
2026-04-22 20:17 -37.29128 -60.88926 37072 ft 473 kts 22°
2026-04-22 20:17 -37.23703 -60.84227 37071 ft 473 kts 22°
2026-04-22 20:18 -37.18319 -60.79571 37067 ft 473 kts 22°
2026-04-22 20:18 -37.12901 -60.74894 37039 ft 473 kts 22°
2026-04-22 20:19 -37.07479 -60.70221 37035 ft 472 kts 21°
2026-04-22 20:19 -37.02077 -60.65574 37069 ft 471 kts 21°
2026-04-22 20:20 -36.96669 -60.60932 37086 ft 471 kts 21°
2026-04-22 20:20 -36.91260 -60.56297 37078 ft 471 kts 21°
2026-04-22 20:21 -36.85882 -60.51695 37080 ft 471 kts 21°
2026-04-22 20:21 -36.80479 -60.47079 37042 ft 471 kts 21°
2026-04-22 20:22 -36.75069 -60.42463 37086 ft 470 kts 21°
2026-04-22 20:22 -36.69664 -60.37865 37088 ft 470 kts 21°
2026-04-22 20:23 -36.64254 -60.33273 37095 ft 471 kts 21°
2026-04-22 20:23 -36.58824 -60.28667 37095 ft 473 kts 21°
2026-04-22 20:24 -36.53372 -60.24048 37092 ft 474 kts 21°
2026-04-22 20:24 -36.47962 -60.19485 37096 ft 473 kts 21°
2026-04-22 20:25 -36.42506 -60.14915 37077 ft 473 kts 21°
2026-04-22 20:25 -36.37050 -60.10352 37089 ft 473 kts 21°
2026-04-22 20:26 -36.31580 -60.05783 37099 ft 473 kts 21°
2026-04-22 20:26 -36.26109 -60.01217 37098 ft 474 kts 21°
2026-04-22 20:27 -36.20637 -59.96657 37095 ft 474 kts 21°
2026-04-22 20:27 -36.15163 -59.92105 37100 ft 474 kts 21°
2026-04-22 20:28 -36.09715 -59.87581 37074 ft 474 kts 20°
2026-04-22 20:28 -36.04204 -59.83013 36987 ft 475 kts 20°
2026-04-22 20:28 -36.01484 -59.80769 36474 ft 479 kts 21°
2026-04-22 20:29 -35.98729 -59.78489 35924 ft 476 kts 21°
2026-04-22 20:29 -35.95968 -59.76204 35277 ft 476 kts 21°
2026-04-22 20:29 -35.93222 -59.73934 34800 ft 473 kts 21°
2026-04-22 20:29 -35.90504 -59.71684 34363 ft 469 kts 21°
2026-04-22 20:30 -35.87798 -59.69450 33878 ft 466 kts 21°
2026-04-22 20:30 -35.85111 -59.67234 33399 ft 462 kts 21°
2026-04-22 20:30 -35.82453 -59.65045 32940 ft 458 kts 21°
2026-04-22 20:30 -35.79818 -59.62877 32503 ft 453 kts 21°
2026-04-22 20:31 -35.77205 -59.60730 32079 ft 449 kts 21°
2026-04-22 20:31 -35.74620 -59.58609 31623 ft 445 kts 21°
2026-04-22 20:31 -35.72055 -59.56506 31225 ft 441 kts 22°
2026-04-22 20:31 -35.69505 -59.54417 30818 ft 437 kts 22°
2026-04-22 20:32 -35.66983 -59.52354 30387 ft 434 kts 22°
2026-04-22 20:32 -35.64482 -59.50308 29956 ft 431 kts 22°
2026-04-22 20:32 -35.61997 -59.48277 29488 ft 427 kts 22°
2026-04-22 20:32 -35.59534 -59.46264 29057 ft 422 kts 22°
2026-04-22 20:33 -35.57133 -59.44303 28627 ft 418 kts 22°
2026-04-22 20:33 -35.54778 -59.42204 28156 ft 423 kts 31°
2026-04-22 20:33 -35.52704 -59.39618 27501 ft 429 kts 41°
2026-04-22 20:33 -35.50842 -59.36739 26769 ft 428 kts 42°
2026-04-22 20:34 -35.49013 -59.33881 26080 ft 424 kts 42°
2026-04-22 20:34 -35.47200 -59.31052 25441 ft 418 kts 42°
2026-04-22 20:34 -35.45410 -59.28272 24880 ft 412 kts 42°
2026-04-22 20:34 -35.43639 -59.25537 24303 ft 406 kts 41°
2026-04-22 20:35 -35.41890 -59.22851 23719 ft 401 kts 41°
2026-04-22 20:35 -35.40151 -59.20190 23034 ft 397 kts 41°
2026-04-22 20:35 -35.38435 -59.17569 22379 ft 392 kts 41°
2026-04-22 20:35 -35.36754 -59.15006 21739 ft 387 kts 41°
2026-04-22 20:36 -35.35080 -59.12457 21081 ft 383 kts 42°
2026-04-22 20:36 -35.33414 -59.09920 20464 ft 378 kts 42°
2026-04-22 20:36 -35.31777 -59.07430 19852 ft 375 kts 42°
2026-04-22 20:36 -35.30150 -59.04956 19253 ft 371 kts 43°
2026-04-22 20:37 -35.28534 -59.02503 18650 ft 368 kts 43°
2026-04-22 20:37 -35.26930 -59.00068 17971 ft 366 kts 43°
2026-04-22 20:37 -35.25336 -58.97651 17311 ft 363 kts 43°
2026-04-22 20:37 -35.23772 -58.95279 16683 ft 360 kts 44°
2026-04-22 20:38 -35.22210 -58.92912 16066 ft 357 kts 44°
2026-04-22 20:38 -35.20656 -58.90559 15451 ft 354 kts 44°
2026-04-22 20:38 -35.19114 -58.88226 14844 ft 352 kts 44°
2026-04-22 20:38 -35.17582 -58.85908 14258 ft 349 kts 45°
2026-04-22 20:39 -35.16060 -58.83609 13662 ft 346 kts 45°
2026-04-22 20:39 -35.14565 -58.81348 13250 ft 338 kts 45°
2026-04-22 20:39 -35.13105 -58.79141 12885 ft 332 kts 46°
2026-04-22 20:39 -35.11649 -58.76946 12528 ft 331 kts 46°
2026-04-22 20:40 -35.10203 -58.74768 12176 ft 330 kts 46°
2026-04-22 20:40 -35.08757 -58.72591 11828 ft 329 kts 47°
2026-04-22 20:40 -35.07318 -58.70425 11487 ft 328 kts 47°
2026-04-22 20:40 -35.05884 -58.68269 11140 ft 327 kts 47°
2026-04-22 20:41 -35.04451 -58.66114 10802 ft 327 kts 48°
2026-04-22 20:41 -35.03017 -58.63958 10489 ft 325 kts 48°
2026-04-22 20:41 -35.01609 -58.61841 10343 ft 317 kts 49°
2026-04-22 20:41 -35.00234 -58.59776 10194 ft 310 kts 49°
2026-04-22 20:42 -34.98888 -58.57754 9995 ft 306 kts 49°
2026-04-22 20:42 -34.97548 -58.55745 9666 ft 305 kts 49°
2026-04-22 20:42 -34.96213 -58.53744 9381 ft 303 kts 49°
2026-04-22 20:42 -34.94885 -58.51756 9088 ft 302 kts 49°
2026-04-22 20:43 -34.93565 -58.49780 8798 ft 301 kts 50°
2026-04-22 20:43 -34.92262 -58.47831 8489 ft 299 kts 50°
2026-04-22 20:43 -34.90932 -58.45842 8215 ft 298 kts 51°
2026-04-22 20:43 -34.89641 -58.43913 7929 ft 297 kts 51°
2026-04-22 20:44 -34.88333 -58.41960 7636 ft 297 kts 51°
2026-04-22 20:44 -34.87031 -58.40015 7342 ft 296 kts 52°
2026-04-22 20:44 -34.85732 -58.38077 7053 ft 295 kts 52°
2026-04-22 20:44 -34.84430 -58.36135 6728 ft 296 kts 52°
2026-04-22 20:45 -34.83118 -58.34177 6278 ft 302 kts 53°
2026-04-22 20:45 -34.81791 -58.32198 5952 ft 301 kts 52°
2026-04-22 20:45 -34.80481 -58.30246 5647 ft 295 kts 52°
2026-04-22 20:45 -34.79204 -58.28346 5356 ft 285 kts 52°
2026-04-22 20:46 -34.76779 -58.24739 4854 ft 265 kts 51°
2026-04-22 20:46 -34.75627 -58.23028 4615 ft 256 kts 51°
2026-04-22 20:46 -34.74541 -58.21416 4561 ft 239 kts 51°
2026-04-22 20:47 -34.73518 -58.19900 4456 ft 224 kts 51°
2026-04-22 20:47 -34.72878 -58.18951 4389 ft 215 kts 51°
2026-04-22 20:47 -34.71392 -58.17404 4289 ft 213 kts 14°
2026-04-22 20:47 -34.69974 -58.17448 4216 ft 203 kts 335°
2026-04-22 20:48 -34.69174 -58.18012 4087 ft 201 kts 315°
2026-04-22 20:48 -34.68034 -58.19735 3833 ft 195 kts 299°
2026-04-22 20:48 -34.67529 -58.20658 3691 ft 194 kts 299°
2026-04-22 20:48 -34.66534 -58.22469 3329 ft 192 kts 300°
2026-04-22 20:49 -34.66044 -58.23357 3177 ft 190 kts 300°
2026-04-22 20:49 -34.65070 -58.25128 2897 ft 188 kts 300°
2026-04-22 20:49 -34.64588 -58.26001 2767 ft 188 kts 301°
2026-04-22 20:49 -34.63874 -58.27288 2553 ft 176 kts 301°
2026-04-22 20:50 -34.63215 -58.28471 2365 ft 162 kts 301°
2026-04-22 20:50 -34.63011 -58.28838 2300 ft 159 kts 301°
2026-04-22 20:50 -34.62537 -58.29691 2125 ft 154 kts 302°
2026-04-22 20:50 -34.61939 -58.30767 1948 ft 154 kts 302°
2026-04-22 20:51 -34.61361 -58.31806 1793 ft 146 kts 302°
2026-04-22 20:51 -34.60798 -58.32820 1578 ft 145 kts 302°
2026-04-22 20:51 -34.60231 -58.33839 1388 ft 145 kts 302°
2026-04-22 20:51 -34.59666 -58.34847 1213 ft 144 kts 301°
2026-04-22 20:52 -34.59119 -58.35858 1031 ft 144 kts 301°
2026-04-22 20:52 -34.58552 -58.36856 835 ft 143 kts 302°
2026-04-22 20:52 -34.58000 -58.37858 639 ft 143 kts 302°
2026-04-22 20:52 -34.57441 -58.38874 419 ft 145 kts 303°
2026-04-22 20:53 -34.56869 -58.39875 237 ft 144 kts 302°
2026-04-22 20:53 -34.56317 -58.40873 44 ft 139 kts 302°
2026-04-22 20:53 -34.55846 -58.41720 23 ft 93 kts 304°
2026-04-22 20:53 -34.55586 -58.42185 27 ft 52 kts 304°
2026-04-22 20:54 -34.55437 -58.42452 27 ft 17 kts 304°
2026-04-22 20:54 -34.55395 -58.42498 25 ft 8 kts 359°
2026-04-22 20:54 -34.55362 -58.42450 26 ft 8 kts 88°
2026-04-22 20:54 -34.55370 -58.42384 24 ft 8 kts 104°
2026-04-22 20:55 -34.55399 -58.42329 25 ft 8 kts 127°
2026-04-22 20:55 -34.55431 -58.42278 24 ft 7 kts 127°
2026-04-22 20:55 -34.55461 -58.42229 27 ft 7 kts 126°
2026-04-22 20:55 -34.55490 -58.42181 24 ft 7 kts 127°
2026-04-22 20:56 -34.55519 -58.42135 24 ft 7 kts 127°
2026-04-22 20:56 -34.55551 -58.42084 25 ft 9 kts 127°
2026-04-22 20:56 -34.55597 -58.42006 25 ft 14 kts 124°
2026-04-22 20:56 -34.55657 -58.41898 29 ft 16 kts 124°
2026-04-22 20:57 -34.55721 -58.41785 25 ft 16 kts 124°
2026-04-22 20:57 -34.55771 -58.41670 24 ft 15 kts 116°
2026-04-22 20:57 -34.55817 -58.41558 24 ft 15 kts 117°
2026-04-22 20:57 -34.55862 -58.41451 24 ft 14 kts 117°
2026-04-22 20:58 -34.55904 -58.41351 24 ft 8 kts 114°
2026-04-22 20:58 -34.55885 -58.41298 28 ft 7 kts 38°
2026-04-22 20:58 -34.55840 -58.41290 24 ft 7 kts 330°
2026-04-22 20:58 -34.55809 -58.41336 24 ft 7 kts 304°
2026-04-22 20:59 -34.55784 -58.41380 26 ft 5 kts 304°
2026-04-22 20:59 -34.55753 -58.41377 24 ft 5 kts 32°
2026-04-22 20:59 -34.55739 -58.41366 24 ft 0 kts 32°